User: anonymous   Login
Location: Fauquembergues
(50.6005°N, 2.0987°E)
Time: 07:25:22
(UTC+00:00)
Language:

Cosmos 2278 - Orbit

View from above orbital plane
View from above orbital plane
View from above satellite
View from above satellite

Ground track
Ground track

The orbit data is extracted from the following two-line orbital elements,

1 23087U 94023A   20273.74916264 +.00000078 +00000-0 +66059-4 0  9996
2 23087 071.0553 009.6573 0009402 194.5912 165.4941 14.13805219363937
Epoch (UTC): 29 September 2020 17:58:47
Eccentricity: 0.0009402
inclination: 71.0553°
perigee height: 839 km
apogee height: 853 km
right ascension of ascending node: 9.6573°
argument of perigee: 194.5912°
revolutions per day: 14.13805219
mean anomaly at epoch: 165.4941°
orbit number at epoch: 36393

The dashed part of the orbit path shows where the satellite is in the earth's shadow,  

DLR